| time (UTC) | temp F | wind direction | speed MPH | gust MPH | rain 1hr in | rain 24hr in | rain mn in | humidity % | barometer mb |
| 20260506034734 | 60 | 228 | 3.0 | 4.0 | 0.00 | 0.02 | 0.02 | 78 | 1012.3 |
| 20260506033735 | 59 | 210 | 4.0 | 6.0 | 0.00 | 0.02 | 0.02 | 81 | 1012.4 |
| 20260506031834 | 60 | 176 | 2.0 | 5.0 | 0.00 | 0.02 | 0.02 | 83 | 1012.1 |
| 20260506031735 | 60 | 193 | 2.0 | 4.0 | 0.00 | 0.02 | 0.02 | 83 | 1012.2 |
| 20260506030752 | 59 | 220 | 2.0 | 5.0 | 0.00 | 0.02 | 0.02 | 85 | 1012.3 |
| 20260506025833 | 59 | 247 | 1.0 | 3.0 | 0.00 | 0.02 | 0.02 | 86 | 1012.3 |
| 20260506024850 | 59 | 196 | 2.0 | 3.0 | 0.00 | 0.02 | 0.02 | 88 | 1012.3 |
| 20260506023934 | 59 | 212 | 2.0 | 3.0 | 0.00 | 0.02 | 0.02 | 88 | 1012.5 |
| 20260506023835 | 59 | 239 | 2.0 | 2.0 | 0.00 | 0.02 | 0.02 | 88 | 1012.5 |
| 20260506021835 | 59 | 199 | 1.0 | 3.0 | 0.00 | 0.02 | 0.02 | 89 | 1012.1 |
| 20260506020836 | 59 | 157 | 0.0 | 1.0 | 0.00 | 0.02 | 0.02 | 88 | 1012.1 |
| 20260506015935 | 59 | 157 | 0.0 | 0.0 | 0.00 | 0.02 | 0.02 | 89 | 1012.2 |
| 20260506015836 | 59 | 157 | 0.0 | 0.0 | 0.00 | 0.02 | 0.02 | 89 | 1012.2 |
| 20260506014737 | 59 | 157 | 0.0 | 0.0 | 0.00 | 0.02 | 0.02 | 88 | 1012.3 |
| 20260506012751 | 60 | 157 | 0.0 | 0.0 | 0.00 | 0.02 | 0.02 | 87 | 1012.1 |
| 20260506011837 | 60 | 148 | 1.0 | 2.0 | 0.00 | 0.02 | 0.02 | 86 | 1011.9 |
| 20260506011735 | 60 | 112 | 0.0 | 1.0 | 0.00 | 0.02 | 0.02 | 86 | 1011.9 |
| 20260506011634 | 61 | 112 | 0.0 | 2.0 | 0.00 | 0.02 | 0.02 | 86 | 1011.9 |
| 20260506004833 | 61 | 225 | 0.0 | 0.0 | 0.02 | 0.02 | 0.02 | 85 | 1011.9 |
| 20260506003834 | 61 | 180 | 0.0 | 0.0 | 0.02 | 0.02 | 0.02 | 83 | 1011.7 |
| 20260506003734 | 61 | 180 | 0.0 | 0.0 | 0.02 | 0.02 | 0.02 | 82 | 1011.8 |
| 20260506002737 | 62 | 180 | 0.0 | 1.0 | 0.02 | 0.02 | 0.02 | 79 | 1011.7 |
| 20260506001834 | 63 | 180 | 0.0 | 1.0 | 0.02 | 0.02 | 0.02 | 76 | 1011.7 |
| 20260506000933 | 65 | 22 | 0.0 | 0.0 | 0.02 | 0.02 | 0.02 | 67 | 1011.5 |
| 20260506000834 | 65 | 22 | 0.0 | 0.0 | 0.02 | 0.02 | 0.02 | 66 | 1011.6 |
| 20260505235853 | 69 | 157 | 0.0 | 0.0 | 0.01 | 0.01 | 0.01 | 55 | 1011.1 |
| 20260505234936 | 71 | 337 | 5.0 | 6.0 | 0.00 | 0.00 | 0.00 | 46 | 1010.6 |
| 20260505232933 | 72 | 252 | 3.0 | 6.0 | 0.00 | 0.00 | 0.00 | 46 | 1009.3 |
| 20260505231934 | 73 | 247 | 2.0 | 5.0 | 0.00 | 0.00 | 0.00 | 45 | 1009.0 |
| 20260505231033 | 73 | 226 | 3.0 | 5.0 | 0.00 | 0.00 | 0.00 | 44 | 1008.9 |
| 20260505230951 | 73 | 229 | 7.0 | 15.0 | 0.00 | 0.00 | 0.00 | 45 | 1008.9 |
| 20260505223036 | 75 | 233 | 5.0 | 14.0 | 0.00 | 0.00 | 0.00 | 42 | 1008.1 |
| 20260505222933 | 75 | 197 | 4.0 | 8.0 | 0.00 | 0.00 | 0.00 | 43 | 1008.1 |
| 20260505221833 | 75 | 252 | 5.0 | 11.0 | 0.00 | 0.00 | 0.00 | 41 | 1007.8 |
| 20260505220834 | 76 | 224 | 8.0 | 14.0 | 0.00 | 0.00 | 0.00 | 40 | 1007.9 |
| 20260505215851 | 77 | 237 | 5.0 | 9.0 | 0.00 | 0.00 | 0.00 | 38 | 1007.5 |
| 20260505214933 | 78 | 201 | 8.0 | 17.0 | 0.00 | 0.00 | 0.00 | 39 | 1007.6 |
| 20260505214850 | 78 | 197 | 3.0 | 6.0 | 0.00 | 0.00 | 0.00 | 39 | 1007.6 |
| 20260505213835 | 78 | 227 | 5.0 | 11.0 | 0.00 | 0.00 | 0.00 | 38 | 1007.5 |
| 20260505213752 | 78 | 192 | 4.0 | 8.0 | 0.00 | 0.00 | 0.00 | 39 | 1007.3 |
| 20260505211833 | 78 | 213 | 4.0 | 7.0 | 0.00 | 0.00 | 0.00 | 37 | 1007.2 |
| 20260505210835 | 79 | 244 | 4.0 | 11.0 | 0.00 | 0.00 | 0.00 | 37 | 1006.9 |
| 20260505205835 | 79 | 222 | 8.0 | 18.0 | 0.00 | 0.00 | 0.00 | 36 | 1007.0 |
| 20260505204933 | 79 | 220 | 7.0 | 16.0 | 0.00 | 0.00 | 0.00 | 37 | 1007.0 |
| 20260505204003 | 78 | 193 | 7.0 | 11.0 | 0.00 | 0.00 | 0.00 | 37 | 1007.1 |
| 20260505204000 | 78 | 218 | 5.0 | 13.0 | 0.00 | 0.00 | 0.00 | 36 | 1007.1 |
| 20260505203533 | 78 | 205 | 5.0 | 10.0 | 0.00 | 0.00 | 0.00 | 36 | 1007.1 |
| 20260505202534 | 78 | 233 | 7.0 | 15.0 | 0.00 | 0.00 | 0.00 | 35 | 1007.2 |
| 20260505202434 | 78 | 194 | 6.0 | 18.0 | 0.00 | 0.00 | 0.00 | 36 | 1007.2 |
| 20260505201434 | 79 | 247 | 4.0 | 8.0 | 0.00 | 0.00 | 0.00 | 35 | 1007.3 |
| 20260505200533 | 79 | 244 | 8.0 | 16.0 | 0.00 | 0.00 | 0.00 | 35 | 1007.3 |
| 20260505195535 | 79 | 203 | 4.0 | 7.0 | 0.00 | 0.00 | 0.00 | 35 | 1007.3 |
| 20260505195435 | 79 | 236 | 6.0 | 14.0 | 0.00 | 0.00 | 0.00 | 36 | 1007.3 |
| 20260505194449 | 78 | 208 | 4.0 | 9.0 | 0.00 | 0.00 | 0.00 | 36 | 1007.3 |
| 20260505193535 | 78 | 223 | 6.0 | 13.0 | 0.00 | 0.00 | 0.00 | 36 | 1007.5 |
| 20260505192534 | 79 | 202 | 8.0 | 15.0 | 0.00 | 0.00 | 0.00 | 37 | 1007.4 |
| 20260505192434 | 79 | 195 | 6.0 | 13.0 | 0.00 | 0.00 | 0.00 | 37 | 1007.5 |
| 20260505191451 | 78 | 259 | 6.0 | 13.0 | 0.00 | 0.00 | 0.00 | 35 | 1007.6 |
| 20260505190535 | 78 | 230 | 6.0 | 15.0 | 0.00 | 0.00 | 0.00 | 36 | 1007.6 |
| 20260505185536 | 79 | 240 | 5.0 | 14.0 | 0.00 | 0.00 | 0.00 | 36 | 1007.6 |
| 20260505185435 | 79 | 191 | 6.0 | 17.0 | 0.00 | 0.00 | 0.00 | 35 | 1007.6 |
| 20260505184433 | 78 | 240 | 5.0 | 9.0 | 0.00 | 0.00 | 0.00 | 36 | 1007.8 |
| 20260505183433 | 79 | 236 | 4.0 | 7.0 | 0.00 | 0.00 | 0.00 | 35 | 1008.0 |
| 20260505183334 | 79 | 222 | 4.0 | 9.0 | 0.00 | 0.00 | 0.00 | 36 | 1008.1 |
| 20260505182336 | 79 | 209 | 9.0 | 15.0 | 0.00 | 0.00 | 0.00 | 35 | 1008.2 |
| 20260505181335 | 79 | 225 | 4.0 | 9.0 | 0.00 | 0.00 | 0.00 | 35 | 1008.4 |
| 20260505180433 | 78 | 241 | 6.0 | 12.0 | 0.00 | 0.00 | 0.00 | 35 | 1008.4 |
| 20260505175433 | 78 | 236 | 6.0 | 10.0 | 0.00 | 0.00 | 0.00 | 35 | 1008.6 |
| 20260505174434 | 78 | 233 | 6.0 | 13.0 | 0.00 | 0.00 | 0.00 | 35 | 1008.6 |
| 20260505174334 | 78 | 171 | 8.0 | 23.0 | 0.00 | 0.00 | 0.00 | 36 | 1008.5 |
| 20260505173334 | 79 | 192 | 7.0 | 20.0 | 0.00 | 0.00 | 0.00 | 37 | 1008.8 |
| 20260505172333 | 78 | 142 | 7.0 | 12.0 | 0.00 | 0.00 | 0.00 | 36 | 1008.7 |
| 20260505172233 | 78 | 173 | 8.0 | 18.0 | 0.00 | 0.00 | 0.00 | 36 | 1008.8 |
| 20260505171235 | 78 | 221 | 4.0 | 8.0 | 0.00 | 0.00 | 0.00 | 37 | 1008.8 |
| 20260505170234 | 77 | 162 | 6.0 | 14.0 | 0.00 | 0.00 | 0.00 | 38 | 1009.0 |
| 20260505165233 | 77 | 244 | 6.0 | 9.0 | 0.00 | 0.00 | 0.00 | 37 | 1009.1 |
| 20260505165135 | 77 | 229 | 4.0 | 11.0 | 0.00 | 0.00 | 0.00 | 38 | 1009.2 |
| 20260505164234 | 78 | 189 | 3.0 | 7.0 | 0.00 | 0.00 | 0.00 | 37 | 1009.3 |
| 20260505162432 | 77 | 175 | 6.0 | 14.0 | 0.00 | 0.00 | 0.00 | 38 | 1009.7 |
| 20260505152449 | 72 | 245 | 5.0 | 10.0 | 0.00 | 0.00 | 0.00 | 43 | 1011.2 |
| 20260505151537 | 71 | 266 | 6.0 | 10.0 | 0.00 | 0.00 | 0.00 | 45 | 1011.3 |
| 20260505151434 | 71 | 255 | 6.0 | 13.0 | 0.00 | 0.00 | 0.00 | 45 | 1011.4 |
| 20260505150434 | 71 | 220 | 7.0 | 17.0 | 0.00 | 0.00 | 0.00 | 46 | 1011.4 |
| 20260505140434 | 68 | 227 | 6.0 | 11.0 | 0.00 | 0.00 | 0.00 | 51 | 1011.7 |
| 20260505123433 | 59 | 191 | 2.0 | 5.0 | 0.00 | 0.00 | 0.00 | 63 | 1012.1 |
| 20260505122335 | 59 | 215 | 1.0 | 4.0 | 0.00 | 0.00 | 0.00 | 64 | 1012.0 |
| 20260505121335 | 59 | 184 | 1.0 | 2.0 | 0.00 | 0.00 | 0.00 | 62 | 1012.1 |
| 20260505120335 | 58 | 229 | 6.0 | 13.0 | 0.00 | 0.00 | 0.00 | 64 | 1012.1 |
| 20260505115334 | 58 | 151 | 1.0 | 2.0 | 0.00 | 0.00 | 0.00 | 65 | 1012.1 |
| 20260505114333 | 57 | 233 | 4.0 | 8.0 | 0.00 | 0.00 | 0.00 | 68 | 1012.3 |
| 20260505112334 | 55 | 236 | 0.0 | 2.0 | 0.00 | 0.00 | 0.00 | 70 | 1012.0 |
| 20260505110433 | 53 | 171 | 2.0 | 4.0 | 0.00 | 0.00 | 0.00 | 72 | 1011.9 |
| 20260505100335 | 52 | 171 | 0.0 | 2.0 | 0.00 | 0.00 | 0.00 | 70 | 1011.8 |
| 20260505095351 | 53 | 195 | 2.0 | 3.0 | 0.00 | 0.00 | 0.00 | 69 | 1011.8 |
| 20260505094433 | 53 | 187 | 2.0 | 4.0 | 0.00 | 0.00 | 0.00 | 68 | 1011.7 |
| 20260505094335 | 53 | 212 | 1.0 | 2.0 | 0.00 | 0.00 | 0.00 | 69 | 1011.8 |
| 20260505092334 | 53 | 158 | 0.0 | 1.0 | 0.00 | 0.00 | 0.00 | 68 | 1011.8 |
| 20260505091333 | 53 | 190 | 1.0 | 5.0 | 0.00 | 0.00 | 0.00 | 67 | 1011.9 |
| 20260505090432 | 53 | 184 | 2.0 | 4.0 | 0.00 | 0.00 | 0.00 | 67 | 1011.9 |
| 20260505085435 | 53 | 220 | 0.0 | 0.0 | 0.00 | 0.00 | 0.00 | 66 | 1011.8 |
| 20260505082533 | 54 | 185 | 0.0 | 2.0 | 0.00 | 0.00 | 0.00 | 61 | 1011.6 |
| 20260505081536 | 55 | 240 | 2.0 | 4.0 | 0.00 | 0.00 | 0.00 | 58 | 1011.7 |
| 20260505080533 | 57 | 197 | 2.0 | 4.0 | 0.00 | 0.00 | 0.00 | 57 | 1011.6 |
| 20260505080432 | 57 | 195 | 2.0 | 4.0 | 0.00 | 0.00 | 0.00 | 57 | 1011.7 |
| 20260505075532 | 58 | 202 | 2.0 | 3.0 | 0.00 | 0.00 | 0.00 | 56 | 1011.7 |
| 20260505074551 | 58 | 226 | 4.0 | 7.0 | 0.00 | 0.00 | 0.00 | 58 | 1011.6 |
| 20260505073535 | 56 | 247 | 2.0 | 5.0 | 0.00 | 0.00 | 0.00 | 65 | 1011.8 |
| 20260505072632 | 51 | 246 | 1.0 | 2.0 | 0.00 | 0.00 | 0.00 | 70 | 1011.7 |
| 20260505071634 | 51 | 187 | 2.0 | 2.0 | 0.00 | 0.00 | 0.00 | 70 | 1011.8 |
| 20260505070634 | 52 | 124 | 0.0 | 1.0 | 0.00 | 0.00 | 0.00 | 70 | 1011.7 |
| 20260505065633 | 51 | 160 | 1.0 | 2.0 | 0.00 | 0.00 | 0.00 | 70 | 1011.9 |
| 20260505064634 | 51 | 223 | 2.0 | 5.0 | 0.00 | 0.00 | 0.00 | 70 | 1012.0 |
| 20260505063633 | 51 | 131 | 3.0 | 4.0 | 0.00 | 0.00 | 0.00 | 70 | 1012.1 |
| 20260505062635 | 51 | 293 | 3.0 | 4.0 | 0.00 | 0.00 | 0.00 | 70 | 1012.3 |
| 20260505061649 | 51 | 270 | 0.0 | 0.0 | 0.00 | 0.00 | 0.00 | 68 | 1012.4 |
| 20260505055751 | 52 | 247 | 0.0 | 1.0 | 0.00 | 0.00 | 0.00 | 68 | 1012.5 |
| 20260505055651 | 52 | 247 | 2.0 | 3.0 | 0.00 | 0.00 | 0.00 | 69 | 1012.5 |
| 20260505054734 | 51 | 112 | 1.0 | 2.0 | 0.00 | 0.00 | 0.00 | 69 | 1012.5 |
| 20260505053734 | 52 | 112 | 2.0 | 2.0 | 0.00 | 0.00 | 0.00 | 68 | 1012.7 |
| 20260505052733 | 52 | 247 | 0.0 | 0.0 | 0.00 | 0.00 | 0.00 | 66 | 1012.7 |
| 20260505051734 | 52 | 202 | 0.0 | 2.0 | 0.00 | 0.00 | 0.00 | 67 | 1012.7 |
| 20260505050733 | 53 | 202 | 0.0 | 0.0 | 0.00 | 0.00 | 0.00 | 65 | 1012.9 |
| 20260505041733 | 54 | 190 | 1.0 | 3.0 | 0.00 | 0.00 | 0.00 | 62 | 1012.8 |
| 20260505040733 | 54 | 183 | 0.0 | 2.0 | 0.00 | 0.00 | 0.00 | 61 | 1012.6 |
| 20260505035741 | 55 | 209 | 2.0 | 4.0 | 0.00 | 0.00 | 0.00 | 61 | 1012.5 |